Pleasanton, TX

3:05 AM CST on November 18, 2019 (GMT -0600)
Pleasanton Municipal

Weather History for KPEZ - October, 2019

Change the Weather History Date:

Wednesday, October 23, 2019

  Actual Average Record
Temperature  
Mean Temperature 69 °F -  
Max Temperature 87 °F 79 °F 95 °F (1991)
Min Temperature 51 °F 57 °F 44 °F (1990)
Cooling Degree Days 4    
Growing Degree Days 19 (Base 50)    
Moisture  
Dew Point 53 °F    
Average Humidity 58    
Maximum Humidity 84    
Minimum Humidity 30    
Precipitation  
Precipitation 0.00 in - - ()
Sea Level Pressure  
Sea Level Pressure 30.03 in    
Wind  
Wind Speed 5 mph (SE)    
Max Wind Speed 16 mph    
Max Gust Speed 24 mph    
Visibility 10 miles    
Events      
Averages and records for this station are not official NWS values.
T = Trace of Precipitation, MM = Missing Value Source: NWS Daily Summary

Daily Weather History Graph

Daily Weather History Graph

Search for Another Location

Airport or City:

Astronomy

Oct. 23, 2019 Rise Set
Actual Time 7:40 AM CDT 6:56 PM CDT
Civil Twilight 7:16 AM CDT 7:20 PM CDT
Nautical Twilight 6:48 AM CDT 7:48 PM CDT
Astronomical Twilight 6:20 AM CDT 8:15 PM CDT
Moon 2:35 AM CDT (10/23) 4:16 PM CDT (10/23)
Length of Visible Light 12h 04m
Length of Day
11h 16m
Waning Crescent, 26% of the Moon is Illuminated
Oct 23
Waning Crescent
Oct 27
New
Nov 4
First Quarter
Nov 12
Full
Nov 19
Last Quarter

Hourly Weather History & Observations

Time (CDT) Temp. Heat Index Dew Point Humidity Pressure Visibility Wind Dir Wind Speed Gust Speed Precip Events Conditions
12:15 AM 60.3 °F - 44.6 °F 56% 30.13 in 10.0 mi SE 3.5 mph - N/A   Clear
12:35 AM 59.2 °F - 45.0 °F 59% 30.12 in 10.0 mi SE 3.5 mph - N/A   Clear
12:55 AM 59.0 °F - 46.0 °F 62% 30.12 in 10.0 mi ESE 3.5 mph - N/A   Clear
1:15 AM 59.2 °F - 46.6 °F 63% 30.11 in 10.0 mi Calm Calm - N/A   Clear
1:35 AM 57.6 °F - 46.4 °F 66% 30.11 in 10.0 mi Calm Calm - N/A   Clear
1:55 AM 57.2 °F - 46.9 °F 69% 30.11 in 10.0 mi East 3.5 mph - N/A   Clear
2:15 AM 57.4 °F - 46.9 °F 68% 30.11 in 10.0 mi East 3.5 mph - N/A   Clear
2:35 AM 57.2 °F - 46.9 °F 69% 30.11 in 10.0 mi East 3.5 mph - N/A   Clear
2:55 AM 57.4 °F - 46.0 °F 66% 30.10 in 10.0 mi Calm Calm - N/A   Clear
3:15 AM 56.7 °F - 46.4 °F 69% 30.10 in 10.0 mi Calm Calm - N/A   Clear
3:35 AM 52.9 °F - 46.8 °F 80% 30.09 in 10.0 mi Calm Calm - N/A   Clear
3:55 AM 51.8 °F - 46.9 °F 83% 30.09 in 10.0 mi Calm Calm - N/A   Clear
4:15 AM 51.4 °F - 46.8 °F 84% 30.09 in 10.0 mi Calm Calm - N/A   Clear
4:35 AM 52.0 °F - 46.6 °F 82% 30.09 in 10.0 mi Calm Calm - N/A   Clear
4:55 AM 52.0 °F - 46.8 °F 82% 30.09 in 10.0 mi Calm Calm - N/A   Clear
5:15 AM 52.7 °F - 46.6 °F 80% 30.08 in 10.0 mi Calm Calm - N/A   Clear
5:35 AM 52.7 °F - 46.4 °F 79% 30.07 in 10.0 mi Calm Calm - N/A   Clear
6:15 AM 52.0 °F - 46.4 °F 81% 30.08 in 10.0 mi Calm Calm - N/A   Clear
6:35 AM 51.8 °F - 46.6 °F 82% 30.07 in 10.0 mi Calm Calm - N/A   Clear
6:55 AM 51.6 °F - 46.0 °F 81% 30.08 in 10.0 mi Calm Calm - N/A   Clear
7:15 AM 52.2 °F - 46.2 °F 80% 30.08 in 10.0 mi Calm Calm - N/A   Clear
7:35 AM 51.8 °F - 46.2 °F 81% 30.08 in 10.0 mi Calm Calm - N/A   Clear
7:55 AM 52.3 °F - 46.4 °F 80% 30.09 in 10.0 mi Calm Calm - N/A   Clear
8:15 AM 53.8 °F - 47.5 °F 79% 30.09 in 10.0 mi Calm Calm - N/A   Clear
8:35 AM 56.7 °F - 48.6 °F 74% 30.10 in 10.0 mi Calm Calm - N/A   Clear
8:55 AM 59.2 °F - 49.3 °F 70% 30.10 in 10.0 mi Calm Calm - N/A   Clear
9:15 AM 62.6 °F - 50.0 °F 63% 30.11 in 10.0 mi Calm Calm - N/A   Clear
9:35 AM 64.6 °F - 50.5 °F 60% 30.11 in 10.0 mi Calm Calm - N/A   Clear
10:15 AM 68.5 °F - 53.6 °F 59% 30.11 in 10.0 mi Calm Calm - N/A   Clear
10:35 AM 70.0 °F - 54.1 °F 57% 30.11 in 10.0 mi ESE 3.5 mph - N/A   Clear
10:55 AM 74.3 °F - 57.2 °F 55% 30.11 in 10.0 mi South 5.8 mph - N/A   Clear
11:15 AM 75.6 °F - 57.9 °F 54% 30.10 in 10.0 mi SSE 8.1 mph - N/A   Clear
11:35 AM 77.4 °F - 58.8 °F 53% 30.10 in 10.0 mi South 13.8 mph 21.9 mph N/A   Clear
11:55 AM 78.6 °F - 58.8 °F 50% 30.09 in 10.0 mi South 10.4 mph - N/A   Clear
12:15 PM 79.3 °F - 59.2 °F 50% 30.08 in 10.0 mi SSE 5.8 mph - N/A   Clear
12:35 PM 81.7 °F 81.8 °F 58.5 °F 45% 30.07 in 10.0 mi South 15.0 mph 18.4 mph N/A   Clear
12:55 PM 82.0 °F 81.8 °F 57.6 °F 43% 30.05 in 10.0 mi South 12.7 mph 19.6 mph N/A   Clear
1:15 PM 83.8 °F 83.0 °F 56.5 °F 39% 30.04 in 10.0 mi South 13.8 mph 17.3 mph N/A   Clear
1:35 PM 84.0 °F 82.9 °F 55.0 °F 37% 30.02 in 10.0 mi South 9.2 mph 17.3 mph N/A   Clear
1:55 PM 83.7 °F 82.5 °F 54.9 °F 37% 30.00 in 10.0 mi South 10.4 mph 17.3 mph N/A   Clear
2:15 PM 85.3 °F 83.6 °F 53.6 °F 34% 29.98 in 10.0 mi South 13.8 mph 18.4 mph N/A   Clear
2:35 PM 86.7 °F 84.9 °F 54.1 °F 33% 29.97 in 10.0 mi SSE 13.8 mph 21.9 mph N/A   Clear
2:55 PM 86.4 °F 84.4 °F 53.1 °F 32% 29.96 in 10.0 mi SSE 10.4 mph 18.4 mph N/A   Clear
3:15 PM 86.9 °F 84.9 °F 53.6 °F 32% 29.95 in 10.0 mi SSE 16.1 mph 20.7 mph N/A   Clear
3:35 PM 86.9 °F 84.9 °F 54.0 °F 32% 29.94 in 10.0 mi SE 11.5 mph 17.3 mph N/A   Scattered Clouds
3:55 PM 87.1 °F - 52.7 °F 31% 29.93 in 10.0 mi South 11.5 mph 20.7 mph N/A   Clear
4:15 PM 87.1 °F - 52.0 °F 30% 29.93 in 10.0 mi SSE 13.8 mph 20.7 mph N/A   Clear
4:35 PM 86.7 °F - 51.6 °F 30% 29.92 in 10.0 mi SE 12.7 mph 24.2 mph N/A   Clear
4:55 PM 86.4 °F - 51.4 °F 30% 29.92 in 10.0 mi SSE 11.5 mph 16.1 mph N/A   Clear
5:15 PM 85.6 °F - 51.8 °F 31% 29.92 in 10.0 mi SSE 15.0 mph 21.9 mph N/A   Clear
5:35 PM 85.1 °F 83.3 °F 53.1 °F 33% 29.91 in 10.0 mi SSE 15.0 mph 21.9 mph N/A   Clear
5:55 PM 84.2 °F 82.9 °F 54.7 °F 36% 29.91 in 10.0 mi SE 9.2 mph 21.9 mph N/A   Clear
6:15 PM 82.6 °F 82.0 °F 56.3 °F 40% 29.92 in 10.0 mi SSE 13.8 mph 24.2 mph N/A   Clear
6:35 PM 81.0 °F 81.0 °F 57.2 °F 44% 29.92 in 10.0 mi SE 12.7 mph 20.7 mph N/A   Clear
6:55 PM 79.9 °F - 57.6 °F 46% 29.93 in 10.0 mi SSE 11.5 mph 21.9 mph N/A   Clear
7:15 PM 78.6 °F - 58.1 °F 49% 29.93 in 10.0 mi SE 13.8 mph 23.0 mph N/A   Clear
7:35 PM 77.5 °F - 59.0 °F 53% 29.94 in 10.0 mi SE 13.8 mph 19.6 mph N/A   Clear
7:55 PM 76.8 °F - 59.0 °F 54% 29.94 in 10.0 mi SE 10.4 mph 21.9 mph N/A   Clear
8:15 PM 76.1 °F - 59.4 °F 56% 29.95 in 10.0 mi SE 15.0 mph 20.7 mph N/A   Clear
8:35 PM 75.6 °F - 59.9 °F 58% 29.96 in 10.0 mi SE 11.5 mph 18.4 mph N/A   Clear
8:55 PM 74.8 °F - 60.3 °F 60% 29.96 in 10.0 mi SE 10.4 mph 19.6 mph N/A   Clear
9:15 PM 74.3 °F - 60.4 °F 62% 29.97 in 10.0 mi SE 10.4 mph 18.4 mph N/A   Clear
9:35 PM 73.9 °F - 60.8 °F 63% 29.98 in 10.0 mi SE 11.5 mph 17.3 mph N/A   Clear
9:55 PM 73.4 °F - 61.0 °F 65% 29.98 in 10.0 mi SE 10.4 mph 21.9 mph N/A   Clear
10:15 PM 72.9 °F - 61.0 °F 66% 29.98 in 10.0 mi SE 6.9 mph - N/A   Clear
10:35 PM 72.5 °F - 61.3 °F 68% 29.98 in 10.0 mi SE 8.1 mph - N/A   Clear
10:55 PM 71.6 °F - 61.3 °F 70% 29.99 in 10.0 mi SE 5.8 mph - N/A   Clear
11:15 PM 70.9 °F - 61.2 °F 71% 29.99 in 10.0 mi SE 5.8 mph - N/A   Clear
11:35 PM 70.2 °F - 61.2 °F 73% 29.98 in 10.0 mi ESE 4.6 mph - N/A   Clear
11:55 PM 69.8 °F - 61.2 °F 74% 29.98 in 10.0 mi SE 4.6 mph - N/A   Clear